Theta_e
357 352 344 338 336 336 338 340 342 344 343 340 332 332 330 330 332 334 337 342 341 338 339 340 341 342 343 346 347 344 343 339 332 328 323 334 334 334 346 344 341 336 336
354 351 342 338 336 337 337 340 343 344 344 341 334 333 332 330 331 334 339 341 343 340 335 337 338 341 344 344 346 344 342 338 331 324 324 326 338 337 345 343 344 341 337
354 348 341 337 336 337 338 340 341 343 344 342 336 334 333 330 330 330 332 337 341 340 336 333 335 340 343 343 343 343 343 339 333 325 324 326 329 339 340 342 346 346 339
352 346 341 338 337 337 337 339 340 341 343 341 338 336 336 332 333 330 331 334 336 337 338 338 340 341 342 341 340 341 341 338 333 332 326 323 332 335 338 341 345 345 340
355 346 341 340 338 337 336 336 336 337 339 339 339 337 337 335 336 332 332 334 344 349 346 345 345 345 344 343 342 341 339 334 328 324 325 325 326 335 335 338 341 342 343
355 350 342 341 339 339 338 336 335 334 335 337 338 338 339 339 338 336 334 334 337 348 350 351 348 346 345 342 338 335 333 330 326 322 321 322 328 330 339 336 341 340 341
338 356 345 342 341 341 339 337 335 333 332 332 332 336 339 341 341 339 337 336 339 347 347 347 349 349 345 342 339 337 336 334 332 329 324 324 330 331 338 338 341 340 341
345 358 346 342 342 341 338 337 336 334 333 332 331 330 333 338 341 341 340 339 341 342 347 347 347 347 347 344 342 339 337 334 331 330 330 325 327 330 332 341 341 337 338
357 358 347 343 342 341 339 338 337 336 335 333 332 332 333 335 336 338 338 339 342 345 344 344 344 346 346 345 343 340 337 334 334 333 332 330 325 329 331 338 340 336 335
357 354 348 347 347 345 343 340 339 338 337 335 334 333 332 332 333 335 337 336 337 338 339 340 340 338 340 340 337 336 335 335 336 335 335 332 327 322 329 338 338 335 333
354 352 345 349 351 347 350 346 344 341 339 338 338 337 334 334 333 333 334 332 332 334 335 335 335 334 334 336 337 335 335 334 333 334 333 328 326 325 323 333 336 334 332
334 330 329 329 329 331 337 346 347 348 343 343 342 341 339 337 335 334 333 338 343 341 335 335 336 335 335 336 335 334 335 331 332 332 335 335 332 331 330 333 335 333 334
332 332 333 333 332 332 334 335 339 346 345 348 343 337 339 345 340 338 337 342 345 345 345 342 341 341 340 340 338 335 333 334 333 332 338 340 339 336 331 331 334 335 334
331 331 331 331 330 331 332 334 335 335 333 331 330 336 341 339 347 347 344 344 344 345 345 345 344 343 344 345 344 342 341 341 340 337 336 337 339 340 339 335 339 337 336
327 326 324 324 323 326 331 333 333 333 333 332 331 332 343 335 349 348 348 346 346 347 347 345 345 345 346 347 345 345 345 345 344 341 339 339 340 339 337 337 342 341 339
326 325 324 323 322 321 321 326 332 335 336 336 332 331 333 349 350 349 348 349 350 349 347 346 346 347 347 346 346 345 344 344 344 342 341 340 339 338 338 338 338 341 341
326 325 325 324 323 322 320 320 326 329 333 336 334 333 334 332 349 349 348 348 341 346 346 348 348 348 347 346 344 342 342 342 342 342 343 343 342 340 341 339 338 338 341
326 326 326 325 324 322 321 319 319 320 328 332 335 336 333 332 332 336 344 347 343 342 347 348 348 347 344 343 342 341 343 341 340 341 340 340 338 338 341 341 342 340 340
326 326 327 326 323 322 321 320 318 320 327 333 337 337 334 333 331 335 344 346 346 346 346 346 346 347 341 341 343 340 337 335 333 332 331 330 331 333 334 336 340 343 342
326 328 326 324 324 323 321 320 320 322 327 331 335 335 338 339 337 332 345 347 346 345 346 344 343 343 340 342 337 336 334 337 335 333 332 328 328 332 336 339 339 340 342
329 327 326 325 324 322 322 324 324 326 329 332 333 335 338 336 337 338 334 347 345 343 342 343 337 336 338 337 337 337 335 333 328 327 328 328 334 333 332 338 338 341 343
329 330 326 325 324 322 321 321 323 324 326 327 329 332 332 331 331 338 341 343 343 341 339 336 331 325 333 336 336 331 327 328 327 327 328 328 327 327 329 336 337 338 339
321 324 325 324 324 323 321 319 320 322 324 325 327 328 332 331 330 330 333 339 339 336 333 329 326 327 333 333 331 330 327 327 323 329 328 328 327 329 331 335 336 337 339
319 318 319 321 322 321 319 320 319 321 322 323 325 327 329 327 328 327 328 329 329 332 333 331 330 327 329 330 329 330 332 332 329 330 328 328 328 331 334 333 330 333 336
317 316 316 316 317 317 317 320 318 317 317 320 322 326 326 328 328 329 326 325 326 325 324 325 326 323 324 326 332 333 334 334 333 326 331 323 330 331 328 326 327 327 331
318 316 316 315 317 319 318 319 319 317 315 318 320 322 325 325 326 325 328 328 328 326 326 325 322 323 325 331 334 333 332 332 332 331 329 327 327 327 325 324 324 322 323
Wind_Speed
16 12 9 6 6 7 9 9 10 9 9 10 11 11 10 10 12 14 15 16 17 15 14 13 14 13 10 8 7 6 5 4 4 6 8 10 11 12 11 9 8 9 8
18 16 12 9 7 7 9 8 9 9 8 9 10 9 9 9 9 10 12 13 14 14 13 12 10 9 8 7 6 5 4 3 3 5 7 10 11 12 10 5 6 8 7
9 15 14 11 8 8 8 8 8 8 8 7 9 9 8 8 8 9 10 10 10 11 11 11 10 10 8 6 5 4 3 3 3 4 7 8 10 10 9 8 7 7 8
12 15 15 13 10 10 9 8 7 7 6 6 6 7 8 6 6 7 9 9 9 9 9 9 9 9 9 8 7 6 5 5 6 6 7 9 10 10 11 11 10 10 9
5 15 15 15 15 12 11 9 7 7 6 6 7 7 8 7 7 8 9 9 9 7 6 7 7 8 8 8 8 7 7 7 8 8 9 9 11 12 15 17 13 12 12
12 19 19 17 13 13 13 11 10 8 6 5 6 6 8 8 7 9 10 11 11 12 11 8 8 9 9 9 8 8 8 8 9 10 10 10 11 13 17 25 19 16 15
29 22 22 18 15 14 13 12 9 9 7 7 6 6 7 8 8 9 11 12 11 10 11 11 11 11 11 11 11 11 11 11 12 12 12 12 12 9 14 22 22 18 17
19 23 21 17 14 11 10 10 10 8 7 7 8 9 9 9 10 10 11 12 13 14 13 13 12 12 14 14 14 14 14 15 15 16 15 15 17 17 15 25 24 20 19
9 18 18 14 9 8 7 6 7 7 7 7 8 8 9 10 10 12 12 13 14 14 15 15 15 15 16 17 17 17 17 17 18 19 20 20 19 18 16 28 27 23 21
8 9 5 4 4 6 6 6 6 7 8 9 10 10 11 12 12 13 14 15 16 17 17 17 17 18 19 18 18 19 19 19 21 22 23 23 22 21 19 25 30 27 23
20 17 15 10 10 12 8 8 10 11 12 11 12 13 13 15 15 15 17 16 16 17 17 18 19 19 20 20 21 20 20 23 22 24 26 25 24 24 24 23 32 30 26
25 26 23 21 18 21 10 13 9 11 14 15 15 16 17 17 17 18 18 16 15 15 17 19 19 19 20 23 24 23 24 25 25 25 27 27 27 24 22 25 32 33 29
25 26 24 23 22 23 20 18 17 13 17 22 22 22 20 20 20 20 20 20 21 19 19 20 22 22 22 22 23 26 26 27 27 26 25 26 25 23 26 29 33 35 31
25 24 21 23 23 22 22 20 17 17 19 21 22 26 28 24 22 22 23 24 25 24 25 24 23 22 21 20 19 22 26 26 25 25 24 25 24 23 28 33 35 40 34
28 27 28 27 28 24 22 23 23 22 22 23 24 25 24 29 28 26 27 29 28 27 28 26 23 24 23 18 16 17 22 26 28 28 31 27 23 25 25 28 29 40 36
20 22 21 23 25 29 30 29 27 26 26 27 25 24 23 30 33 34 31 31 30 27 25 22 19 20 19 17 16 16 16 15 19 22 25 28 31 30 24 26 31 39 38
18 16 18 17 17 22 26 29 30 29 30 29 29 28 24 23 31 38 40 38 36 29 24 22 20 18 17 16 16 16 17 18 20 21 19 21 23 22 29 30 32 36 40
16 15 13 14 18 20 22 25 27 31 32 33 33 34 34 27 26 35 41 43 36 31 26 22 20 20 20 17 16 17 17 18 19 20 22 24 25 26 25 27 36 38 40
13 13 14 14 17 20 23 24 25 29 31 33 33 34 34 35 29 29 36 42 40 31 27 25 22 19 18 15 15 17 20 21 23 24 26 28 30 29 27 31 31 38 42
11 15 15 16 20 22 25 28 30 31 31 30 31 35 35 34 30 25 32 36 37 34 27 19 15 15 14 15 16 19 22 23 23 25 27 28 28 28 28 29 30 34 38
16 17 19 20 23 26 28 30 28 30 26 26 29 32 31 32 29 21 25 35 37 32 17 14 4 14 13 16 15 16 18 19 20 20 23 21 23 23 27 24 28 29 38
23 19 22 21 21 24 24 23 19 22 23 22 27 28 27 29 29 18 16 27 32 25 20 12 5 3 26 11 5 1 3 7 18 15 21 22 27 26 27 25 26 29 30
24 17 11 9 12 16 19 21 22 24 22 27 29 29 32 24 20 19 9 5 7 12 8 8 11 11 18 11 11 5 1 4 3 17 19 23 21 22 24 24 22 26 26
17 15 12 11 13 15 16 20 21 18 15 18 23 28 26 26 21 17 11 7 9 10 9 9 9 6 5 21 11 10 11 11 3 5 8 15 20 15 16 19 21 20 21
17 19 19 15 14 18 17 16 19 20 21 22 25 28 27 23 23 17 14 8 1 6 7 7 4 3 9 23 23 14 9 10 10 4 7 4 14 9 13 14 11 8 10
16 16 15 17 13 14 14 12 15 19 22 25 24 25 25 23 22 26 17 8 9 7 6 3 4 5 11 20 10 8 9 5 5 3 4 6 4 6 7 8 4 9 16
Wind_Direction
207 197 183 169 142 133 127 123 117 118 115 107 107 106 110 116 122 129 136 140 141 145 147 150 154 162 159 150 144 134 135 143 149 151 154 152 149 154 155 140 130 129 127
172 184 171 165 147 131 124 121 117 119 118 116 116 111 108 114 120 127 137 145 148 152 154 155 159 167 173 168 164 161 159 167 174 177 175 173 171 171 174 163 152 158 146
160 172 168 158 143 129 123 127 123 123 125 120 125 126 121 126 132 138 143 148 155 159 162 164 170 178 188 195 193 195 205 216 213 203 199 198 197 194 193 192 177 180 173
171 179 168 162 157 145 138 140 132 127 129 127 128 132 127 131 137 147 152 155 159 169 174 173 176 189 201 209 216 224 232 245 246 239 226 218 215 221 220 212 202 194 193
230 196 179 174 168 159 153 151 145 141 144 142 144 151 150 154 160 164 168 172 167 169 189 190 193 205 215 223 229 237 246 249 250 251 244 234 226 230 250 226 216 207 207
262 218 191 183 181 170 165 162 157 147 146 149 159 168 174 171 178 179 181 186 190 187 192 210 220 223 230 235 242 248 253 260 264 262 253 247 235 260 268 228 224 216 215
254 219 211 187 185 189 176 162 159 152 156 163 171 185 196 191 202 203 194 196 202 209 219 214 224 237 239 245 250 255 260 264 267 268 263 255 245 265 259 217 217 216 217
200 202 205 197 195 194 189 171 164 167 171 189 198 191 195 209 207 214 220 215 214 217 220 230 234 243 254 253 256 262 266 271 271 268 266 260 258 255 258 226 223 221 220
180 199 193 199 206 217 214 196 182 185 203 216 222 216 217 218 216 217 221 227 231 236 234 229 230 233 242 250 257 263 267 268 271 271 271 267 264 258 266 233 227 223 223
182 151 164 214 255 263 259 243 235 230 228 231 232 233 231 227 229 231 234 230 233 237 239 240 239 240 244 250 254 257 264 269 268 271 271 268 268 265 261 235 231 226 227
77 71 56 31 10 340 300 311 275 257 258 255 254 252 249 242 237 237 238 240 244 243 244 246 247 248 250 254 258 260 262 265 268 270 271 270 272 271 261 248 235 230 231
78 63 52 46 33 27 4 330 306 278 268 273 270 269 262 255 253 249 247 242 242 243 244 247 248 251 253 256 260 263 262 265 268 269 273 278 277 275 257 250 235 233 234
87 64 50 38 26 19 25 8 354 332 304 289 274 283 275 263 256 249 244 235 237 239 240 246 250 251 254 260 266 268 269 272 271 270 273 287 290 275 260 254 242 238 235
72 58 55 42 26 11 1 1 357 340 323 316 306 302 280 257 248 242 238 238 239 243 243 243 248 255 259 265 273 276 277 277 277 270 275 287 291 278 264 262 250 241 234
53 38 24 23 25 22 15 3 352 339 324 314 308 311 276 263 253 249 244 243 244 248 244 243 249 253 257 261 266 279 277 274 276 279 280 283 281 279 272 257 244 240 236
59 54 47 30 16 17 13 4 358 351 345 333 317 305 305 265 259 262 252 246 244 241 233 235 241 256 249 245 264 275 284 289 285 287 292 289 280 273 263 246 244 241 240
73 59 50 45 31 16 11 7 3 352 344 337 330 322 313 292 270 262 261 250 243 240 239 233 234 237 235 249 270 285 286 281 280 287 297 302 310 301 279 252 243 246 241
91 80 64 43 32 26 20 11 3 359 353 345 340 334 324 312 288 271 261 250 244 240 240 241 244 245 257 272 287 297 300 300 301 303 304 304 300 298 293 269 256 249 249
82 81 76 50 34 20 12 9 7 2 356 353 348 342 334 322 309 286 268 245 239 239 239 242 248 258 270 278 275 291 294 299 303 303 302 304 306 304 299 289 274 253 247
99 88 69 43 29 23 14 5 2 1 360 357 350 344 339 335 322 296 270 248 241 240 235 230 238 257 260 263 277 282 290 288 294 295 300 305 304 304 302 295 289 275 255
83 70 50 38 29 23 17 12 6 1 2 2 359 348 346 342 332 301 274 253 250 243 237 228 253 302 272 267 280 286 292 293 290 294 300 305 304 306 308 304 301 288 268
64 65 49 38 28 23 20 16 10 2 5 4 5 5 354 356 357 342 264 246 244 241 237 234 259 282 288 261 219 226 301 298 281 290 297 299 301 304 304 304 301 295 283
71 75 63 36 16 8 7 7 10 13 10 11 9 2 6 1 1 15 19 218 234 244 245 221 216 249 264 256 240 207 277 243 317 300 297 297 299 301 300 303 304 297 290
58 54 54 35 10 7 5 12 22 16 14 3 352 3 11 13 17 11 3 25 83 104 136 159 155 137 284 288 286 247 258 264 244 308 299 301 297 300 301 309 313 299 284
32 28 25 18 21 29 18 13 10 18 12 19 13 1 7 18 19 19 33 32 56 205 218 217 253 290 326 306 283 288 291 273 262 213 295 314 322 300 320 333 335 326 284
356 356 6 8 359 358 11 18 10 10 16 12 9 3 354 12 17 25 25 1 19 26 24 272 185 269 270 277 292 325 309 281 282 244 275 294 264 297 326 337 2 93 105